Location: Street
(51.1247°N, 2.7429°W)
Time: 10:23:09
(UTC+00:00)

Tiros 1 - Pass Details

Date: 30 November 2020
Orbit: 630 x 663 km, 48.4° (Epoch: 21 January)

Event Time Altitude Azimuth Distance (km) Brightness Sun altitude
Rises 15:34:42 0° 230° (SW) 2,988 14.1 3.2°
Reaches altitude 10° 15:37:10 10° 222° (SW) 2,077 12.2 2.9°
Maximum altitude 15:41:35 37° 156° (SSE) 1,021 8.4 2.4°
Drops below altitude 10° 15:45:59 10° 89° (E) 2,074 9.3 1.9°
Sets 15:48:27 0° 81° (E) 2,983 10.0 1.6°
